Retour au catalogue

COSMOS 1898

ActifMilitaireLEO
NORAD 18585·PAYLOAD·🇷🇺 Russia

Lancé Dec 1, 1987 depuis Plesetsk Cosmodrome

Loading…

Prochains Passages (prochaines 24 heures)

TLE

FraisSource: Space-Track

Époque: Sep 14, 2026, 19:57 UTC

1 18585U 87098A   26257.83192240  .00000080  00000-0  37581-4 0  9996
2 18585  74.0052 306.8588 0021967 281.4008  78.4676 14.34592448 28285

Suivez COSMOS 1898 en temps réel avec AllMySat

Download on the App Store